This is the latest recevied weather packets stored in our database for station/object KD2VWU. If no packets are shown the sender has not sent any weather packets the latest 10 day(s).
| Time | Temp. | Humidity | Pressure | Rain* | Wind** | Luminosity | Snow |
|---|---|---|---|---|---|---|---|
| 1777998989 | 25.56° C | 45% | 1006.7 hPa | 0 mm | - | - | - |
| 1777998686 | 25.56° C | 50% | 1006.6 hPa | 0 mm | - | - | - |
| 1777998383 | 25.56° C | 47% | 1007 hPa | 0 mm | - | - | - |
| 1777998081 | 25° C | 49% | 1006.9 hPa | 0 mm | - | - | - |
| 1777997778 | 25.56° C | 48% | 1007 hPa | 0 mm | - | - | - |
| 1777997475 | 24.44° C | 52% | 1007.1 hPa | 0 mm | - | - | - |
| 1777997173 | 25° C | 49% | 1007.1 hPa | 0 mm | - | - | - |
| 1777996870 | 24.44° C | 50% | 1007.1 hPa | 0 mm | - | - | - |
| 1777996566 | 24.44° C | 50% | 1007.1 hPa | 0 mm | - | - | - |
| 1777996262 | 24.44° C | 51% | 1007.3 hPa | 0 mm | - | - | - |
| 1777995958 | 24.44° C | 51% | 1007.3 hPa | 0 mm | - | - | - |
| 1777995655 | 24.44° C | 56% | 1007.4 hPa | 0 mm | - | - | - |
| 1777995352 | 23.89° C | 51% | 1007.4 hPa | 0 mm | - | - | - |
| 1777995050 | 23.89° C | 52% | 1007.4 hPa | 0 mm | - | - | - |
| 1777994746 | 23.33° C | 55% | 1007.7 hPa | 0 mm | - | - | - |
| 1777994442 | 23.33° C | 56% | 1007.5 hPa | 0 mm | - | - | - |
| 1777994137 | 23.33° C | 55% | 1007.4 hPa | 0 mm | - | - | - |
| 1777993835 | 22.78° C | 55% | 1007.5 hPa | 0 mm | - | - | - |
| 1777993531 | 22.78° C | 56% | 1007.8 hPa | 0 mm | - | - | - |
| 1777993227 | 22.22° C | 58% | 1007.8 hPa | 0 mm | - | - | - |
| 1777992923 | 21.67° C | 60% | 1007.8 hPa | 0 mm | - | - | - |
| 1777992622 | 21.11° C | 63% | 1007.9 hPa | 0 mm | - | - | - |
| 1777992319 | 20.56° C | 61% | 1007.8 hPa | 0 mm | - | - | - |
| 1777992016 | 20.56° C | 60% | 1008 hPa | 0 mm | - | - | - |
| 1777991714 | 20.56° C | 63% | 1008 hPa | 0 mm | - | - | - |
* Rain latest hour (hover to see other rain measurements)
** Current wind speed in m/s (hover to see current wind gust speed)